Location: Rumah Dana
(3.1167°N, 113.0167°E)
Time: 03:59:30
(UTC+00:00)

SL-4 R/B - Pass Details

Date: 20 January 2026
Orbit: 384 x 519 km, 51.6° (Epoch: 11 February)

Event Time Altitude Azimuth Distance (km) Brightness Sun altitude
Rises 10:58:16 0° 307° (NW) 2,559 5.9 -5.6°
Reaches altitude 10° 11:00:42 10° 294° (WNW) 1,656 5.2 -6.2°
Maximum altitude 11:03:54 27° 236° (SW) 939 4.2 -6.9°
Drops below altitude 10° 11:06:59 10° 176° (S) 1,590 4.6 -7.6°
Sets 11:09:17 0° 164° (SSE) 2,435 5.4 -8.2°
